FW4245 Weather Reports


time (UTC)temp
F
wind
direction
speed
knots
gust
knots
rain 1hr
in
rain 24hr
in
rain mn
in
humidity
%
barometer
mb
20260505214005 80 151 1.7 13.0 0.00 0.00 0.00 50 1013.9
20260505214003 80 306 0.9 13.0 0.00 0.00 0.00 50 1014.3
20260505213505 81 221 7.0 13.0 0.00 0.00 0.00 48 1014.0
20260505213502 81 151 6.1 13.0 0.00 0.00 0.00 49 1014.4
20260505213026 81 311 4.3 13.0 0.00 0.00 0.00 47 1014.1
20260505213002 81 308 3.5 13.0 0.00 0.00 0.00 48 1014.5
20260505212508 81 96 4.3 13.0 0.00 0.00 0.00 47 1013.9
20260505212502 81 72 3.5 13.0 0.00 0.00 0.00 48 1014.3
20260505212009 81 86 5.2 14.8 0.00 0.00 0.00 47 1013.9
20260505212002 81 69 4.3 14.8 0.00 0.00 0.00 47 1014.3
20260505211504 81 140 5.2 14.8 0.00 0.00 0.00 47 1013.8
20260505211502 81 265 5.2 14.8 0.00 0.00 0.00 48 1014.3
20260505211004 82 249 5.2 12.2 0.00 0.00 0.00 46 1013.9
20260505210508 82 246 2.6 10.4 0.00 0.00 0.00 47 1014.0
20260505210501 82 243 2.6 10.4 0.00 0.00 0.00 48 1014.4
20260505210004 82 180 3.5 13.9 0.00 0.00 0.00 46 1013.9
20260505210001 82 216 3.5 13.9 0.00 0.00 0.00 47 1014.3
20260505205504 82 124 3.5 13.9 0.00 0.00 0.00 46 1013.7
20260505205501 82 121 4.3 13.9 0.00 0.00 0.00 47 1014.2
20260505205100 82 166 4.3 13.9 0.00 0.00 0.00 46 1014.2
20260505205012 82 292 3.5 13.0 0.00 0.00 0.00 46 1013.9
20260505204601 82 131 3.5 13.0 0.00 0.00 0.00 47 1014.3
20260505204506 82 131 5.2 13.0 0.00 0.00 0.00 46 1013.9
20260505204100 82 202 4.3 13.0 0.00 0.00 0.00 47 1014.2
20260505204007 82 235 5.2 13.0 0.00 0.00 0.00 47 1013.9
20260505203601 82 144 3.5 13.0 0.00 0.00 0.00 47 1014.2
20260505203507 82 141 3.5 13.0 0.00 0.00 0.00 46 1013.9
20260505203105 82 185 3.5 19.1 0.00 0.00 0.00 46 1014.2
20260505203015 82 127 3.5 19.1 0.00 0.00 0.00 45 1013.9
20260505202559 82 131 5.2 19.1 0.00 0.00 0.00 47 1014.3
20260505202505 82 262 7.0 19.1 0.00 0.00 0.00 46 1014.1
20260505202058 82 294 4.3 13.9 0.00 0.00 0.00 46 1014.4
20260505202017 82 238 5.2 13.9 0.00 0.00 0.00 45 1014.1
20260505201558 82 292 2.6 13.9 0.00 0.00 0.00 45 1014.5
20260505201509 82 266 4.3 13.9 0.00 0.00 0.00 44 1014.1
20260505201057 83 147 4.3 13.0 0.00 0.00 0.00 43 1014.7
20260505201006 82 198 3.5 13.0 0.00 0.00 0.00 43 1014.3
20260505200557 82 139 5.2 13.0 0.00 0.00 0.00 44 1014.7
20260505200511 82 75 3.5 13.0 0.00 0.00 0.00 43 1014.3
20260505200056 82 224 4.3 13.0 0.00 0.00 0.00 43 1014.9
20260505200009 82 122 4.3 13.0 0.00 0.00 0.00 43 1014.5
20260505195600 82 341 3.5 12.2 0.00 0.00 0.00 43 1014.8
20260505195511 82 219 4.3 12.2 0.00 0.00 0.00 42 1014.4
20260505195054 83 233 4.3 11.3 0.00 0.00 0.00 43 1014.9
20260505195009 83 232 3.5 10.4 0.00 0.00 0.00 42 1014.5
20260505194553 82 276 4.3 9.6 0.00 0.00 0.00 42 1015.0
20260505194513 82 246 3.5 9.6 0.00 0.00 0.00 42 1014.6
20260505194053 82 106 2.6 11.3 0.00 0.00 0.00 43 1015.1
20260505194007 82 112 4.3 14.8 0.00 0.00 0.00 42 1014.7
20260505193555 82 295 4.3 14.8 0.00 0.00 0.00 43 1015.2
20260505193509 82 143 6.1 14.8 0.00 0.00 0.00 42 1014.8
20260505193052 82 242 7.0 14.8 0.00 0.00 0.00 43 1015.3
20260505193011 82 238 7.8 14.8 0.00 0.00 0.00 42 1014.9
20260505192552 82 233 2.6 15.6 0.00 0.00 0.00 44 1015.4
20260505192508 82 166 3.5 15.6 0.00 0.00 0.00 43 1014.9
20260505192052 82 233 6.1 15.6 0.00 0.00 0.00 42 1015.4
20260505192010 82 252 7.0 15.6 0.00 0.00 0.00 42 1015.1
20260505191608 82 143 2.6 13.9 0.00 0.00 0.00 43 1015.4
20260505191510 82 164 2.6 15.6 0.00 0.00 0.00 43 1015.1
20260505191052 82 214 3.5 15.6 0.00 0.00 0.00 44 1015.6
20260505191011 81 139 3.5 15.6 0.00 0.00 0.00 43 1015.1
20260505190551 82 259 7.0 15.6 0.00 0.00 0.00 43 1015.5
20260505190510 82 183 6.1 13.0 0.00 0.00 0.00 42 1015.2
20260505190052 82 32 5.2 13.0 0.00 0.00 0.00 43 1015.6
20260505190014 82 236 4.3 12.2 0.00 0.00 0.00 43 1015.2
20260505185553 82 188 4.3 12.2 0.00 0.00 0.00 43 1015.6
20260505185506 82 241 4.3 12.2 0.00 0.00 0.00 44 1015.3
20260505185049 82 130 4.3 11.3 0.00 0.00 0.00 44 1015.6
20260505185015 82 206 3.5 11.3 0.00 0.00 0.00 43 1015.1
20260505184549 82 230 4.3 11.3 0.00 0.00 0.00 43 1015.7
20260505184515 82 264 5.2 11.3 0.00 0.00 0.00 43 1015.3
20260505184049 82 143 2.6 10.4 0.00 0.00 0.00 43 1015.6
20260505184006 82 238 4.3 10.4 0.00 0.00 0.00 41 1015.3
20260505183548 82 221 2.6 12.2 0.00 0.00 0.00 43 1015.6
20260505183512 81 274 2.6 12.2 0.00 0.00 0.00 42 1015.3
20260505183049 81 251 4.3 14.8 0.00 0.00 0.00 40 1015.6
20260505183018 82 226 5.2 14.8 0.00 0.00 0.00 39 1015.4
20260505182549 82 229 3.5 14.8 0.00 0.00 0.00 40 1015.8
20260505182514 81 259 4.3 14.8 0.00 0.00 0.00 40 1015.3
20260505182052 82 254 5.2 12.2 0.00 0.00 0.00 41 1015.8
20260505182013 82 203 5.2 12.2 0.00 0.00 0.00 40 1015.5
20260505181546 81 254 3.5 15.6 0.00 0.00 0.00 41 1015.9
20260505181518 81 183 3.5 15.6 0.00 0.00 0.00 42 1015.5
20260505181047 81 109 6.1 15.6 0.00 0.00 0.00 42 1016.0
20260505181008 81 170 7.0 15.6 0.00 0.00 0.00 41 1015.5
20260505180546 81 208 4.3 13.9 0.00 0.00 0.00 42 1015.9
20260505180506 81 319 5.2 13.9 0.00 0.00 0.00 42 1015.5
20260505180100 81 175 4.3 13.9 0.00 0.00 0.00 43 1015.8
20260505180035 81 123 6.1 13.9 0.00 0.00 0.00 42 1015.5
20260505175545 81 230 3.5 13.0 0.00 0.00 0.00 43 1015.9
20260505175509 81 255 1.7 12.2 0.00 0.00 0.00 44 1015.5
20260505175044 80 76 4.3 12.2 0.00 0.00 0.00 43 1015.9
20260505175003 80 151 5.2 12.2 0.00 0.00 0.00 42 1015.5
20260505174553 81 279 4.3 10.4 0.00 0.00 0.00 44 1015.8
20260505174537 81 322 5.2 14.8 0.00 0.00 0.00 43 1015.5
20260505174043 81 315 4.3 14.8 0.00 0.00 0.00 43 1015.9
20260505174010 81 240 3.5 14.8 0.00 0.00 0.00 43 1015.4
20260505173544 81 177 5.2 14.8 0.00 0.00 0.00 44 1015.8
20260505173502 81 150 7.0 14.8 0.00 0.00 0.00 43 1015.6
20260505173046 81 237 4.3 10.4 0.00 0.00 0.00 45 1016.1
20260505173022 81 292 4.3 10.4 0.00 0.00 0.00 43 1015.6
20260505172542 80 226 3.5 11.3 0.00 0.00 0.00 46 1016.1
20260505172511 80 105 4.3 11.3 0.00 0.00 0.00 45 1015.8
20260505172041 80 244 4.3 11.3 0.00 0.00 0.00 43 1016.2
20260505172003 80 295 5.2 11.3 0.00 0.00 0.00 43 1015.8
20260505171544 80 245 5.2 11.3 0.00 0.00 0.00 46 1016.2
20260505171524 80 235 6.1 11.3 0.00 0.00 0.00 47 1015.8
20260505171041 80 16 5.2 11.3 0.00 0.00 0.00 46 1016.3
20260505171008 80 271 4.3 10.4 0.00 0.00 0.00 46 1015.9
20260505170540 79 240 4.3 11.3 0.00 0.00 0.00 47 1016.4
20260505170505 79 244 5.2 12.2 0.00 0.00 0.00 46 1016.0
20260505170039 79 158 4.3 12.2 0.00 0.00 0.00 47 1016.5
20260505170023 79 252 4.3 12.2 0.00 0.00 0.00 46 1016.1
20260505165536 79 279 5.2 12.2 0.00 0.00 0.00 47 1016.6
20260505165509 79 281 5.2 12.2 0.00 0.00 0.00 47 1016.1
20260505165036 79 240 5.2 12.2 0.00 0.00 0.00 47 1016.6
20260505165006 79 245 4.3 12.2 0.00 0.00 0.00 47 1016.0
20260505164540 79 297 4.3 11.3 0.00 0.00 0.00 49 1016.6
20260505164522 79 235 4.3 13.0 0.00 0.00 0.00 49 1016.1
20260505164037 79 233 4.3 13.0 0.00 0.00 0.00 50 1016.6
20260505164011 79 249 4.3 13.0 0.00 0.00 0.00 50 1016.1
20260505163534 79 264 2.6 12.2 0.00 0.00 0.00 50 1016.6
20260505163506 79 207 2.6 12.2 0.00 0.00 0.00 50 1016.1
20260505163034 79 41 2.6 12.2 0.00 0.00 0.00 51 1016.7
20260505163025 78 264 3.5 12.2 0.00 0.00 0.00 51 1016.2
20260505162533 78 278 4.3 11.3 0.00 0.00 0.00 51 1016.7
20260505162510 78 204 4.3 11.3 0.00 0.00 0.00 49 1016.1
20260505162032 78 207 4.3 11.3 0.00 0.00 0.00 50 1016.7
20260505162008 78 169 4.3 11.3 0.00 0.00 0.00 50 1016.2
20260505161531 78 235 3.5 10.4 0.00 0.00 0.00 50 1016.8
20260505161522 78 192 4.3 10.4 0.00 0.00 0.00 50 1016.3
20260505161031 78 237 3.5 10.4 0.00 0.00 0.00 51 1016.7
20260505161011 78 262 3.5 10.4 0.00 0.00 0.00 51 1016.5
20260505160530 78 267 4.3 10.4 0.00 0.00 0.00 52 1016.8
20260505160505 78 209 4.3 10.4 0.00 0.00 0.00 51 1016.5
20260505153029 76 160 4.3 13.9 0.00 0.00 0.00 54 1016.6
20260505153025 76 157 4.3 13.9 0.00 0.00 0.00 54 1016.9
20260505152525 76 62 2.6 12.2 0.00 0.00 0.00 55 1017.0
20260505152511 76 148 3.5 12.2 0.00 0.00 0.00 54 1016.6
20260505152023 75 301 3.5 12.2 0.00 0.00 0.00 56 1017.0
20260505152010 75 238 4.3 12.2 0.00 0.00 0.00 55 1016.6
20260505151526 75 255 5.2 9.6 0.00 0.00 0.00 55 1016.5
20260505151521 75 143 4.3 9.6 0.00 0.00 0.00 55 1016.9
20260505151021 75 233 3.5 9.6 0.00 0.00 0.00 57 1016.9
20260505151008 75 165 3.5 9.6 0.00 0.00 0.00 56 1016.5
20260505150520 75 237 3.5 9.6 0.00 0.00 0.00 57 1016.9
20260505150513 75 188 4.3 9.6 0.00 0.00 0.00 56 1016.6
20260505140513 70 213 5.2 15.6 0.00 0.00 0.00 62 1016.8
20260505140506 70 348 4.3 15.6 0.00 0.00 0.00 63 1017.2
20260505125012 66 273 5.2 13.0 0.00 0.00 0.00 67 1017.0
20260505124552 66 258 2.6 13.0 0.00 0.00 0.00 69 1017.3
20260505124514 66 333 4.3 13.0 0.00 0.00 0.00 68 1017.0
20260505124052 66 316 5.2 13.0 0.00 0.00 0.00 68 1017.2
20260505124007 66 267 5.2 13.0 0.00 0.00 0.00 68 1016.9
20260505123553 65 235 3.5 10.4 0.00 0.00 0.00 69 1017.2
20260505123504 65 319 3.5 10.4 0.00 0.00 0.00 68 1016.9
20260505123051 65 296 2.6 10.4 0.00 0.00 0.00 69 1017.3
20260505123015 65 195 2.6 10.4 0.00 0.00 0.00 69 1017.0
20260505122547 65 192 2.6 9.6 0.00 0.00 0.00 70 1017.3
20260505122506 65 248 2.6 9.6 0.00 0.00 0.00 70 1016.9
20260505122047 64 220 3.5 10.4 0.00 0.00 0.00 70 1017.2
20260505122003 64 245 3.5 10.4 0.00 0.00 0.00 70 1016.8
20260505121547 64 247 4.3 10.4 0.00 0.00 0.00 71 1017.0
20260505121517 64 243 4.3 10.4 0.00 0.00 0.00 71 1016.8
20260505121047 64 248 2.6 10.4 0.00 0.00 0.00 72 1017.1
20260505121007 63 105 2.6 10.4 0.00 0.00 0.00 72 1016.8
20260505120547 63 258 4.3 10.4 0.00 0.00 0.00 72 1017.2
20260505120503 63 198 4.3 10.4 0.00 0.00 0.00 72 1016.8
20260505120050 63 231 2.6 7.8 0.00 0.00 0.00 73 1017.1
20260505120018 63 252 3.5 7.8 0.00 0.00 0.00 73 1016.6
20260505115546 63 233 3.5 8.7 0.00 0.00 0.00 73 1017.1
20260505115509 62 258 3.5 8.7 0.00 0.00 0.00 73 1016.8
20260505115045 62 248 2.6 8.7 0.00 0.00 0.00 74 1017.1
20260505115004 62 252 2.6 8.7 0.00 0.00 0.00 73 1016.8
20260505114545 62 118 3.5 8.7 0.00 0.00 0.00 74 1017.2
20260505114518 62 244 4.3 8.7 0.00 0.00 0.00 73 1016.8
20260505114045 62 89 1.7 8.7 0.00 0.00 0.00 74 1017.1
20260505114010 62 264 2.6 8.7 0.00 0.00 0.00 74 1016.7
20260505113543 62 206 3.5 7.8 0.00 0.00 0.00 74 1017.1
20260505113503 62 139 4.3 7.8 0.00 0.00 0.00 74 1016.7
20260505113049 61 212 0.9 7.0 0.00 0.00 0.00 76 1017.1
20260505113024 61 162 0.9 7.0 0.00 0.00 0.00 75 1016.7
20260505112546 61 271 1.7 7.0 0.00 0.00 0.00 76 1016.9
20260505112512 61 298 2.6 7.0 0.00 0.00 0.00 76 1016.7
20260505112043 60 258 2.6 7.0 0.00 0.00 0.00 77 1017.0
20260505112004 60 177 2.6 7.0 0.00 0.00 0.00 76 1016.6
20260505111543 60 247 0.9 7.0 0.00 0.00 0.00 78 1017.0
20260505111521 60 285 1.7 7.0 0.00 0.00 0.00 77 1016.7
20260505111042 60 116 0.9 4.3 0.00 0.00 0.00 78 1016.9
20260505111011 60 238 1.7 4.3 0.00 0.00 0.00 78 1016.6
20260505110542 59 274 0.9 6.1 0.00 0.00 0.00 78 1016.8
20260505110504 59 235 0.9 6.1 0.00 0.00 0.00 78 1016.5
20260505102036 58 242 0.9 3.5 0.00 0.00 0.00 81 1016.5
20260505102008 58 165 0.9 4.3 0.00 0.00 0.00 81 1016.1
20260505101556 58 169 0.0 4.3 0.00 0.00 0.00 81 1016.4
20260505101532 58 238 0.0 4.3 0.00 0.00 0.00 80 1016.0
20260505101035 58 218 0.9 4.3 0.00 0.00 0.00 81 1016.4
20260505101010 58 243 0.9 4.3 0.00 0.00 0.00 80 1015.9
20260505100534 58 266 0.0 3.5 0.00 0.00 0.00 80 1016.3
20260505100505 58 137 0.9 3.5 0.00 0.00 0.00 80 1015.8
20260505100054 58 186 0.0 4.3 0.00 0.00 0.00 79 1016.2
20260505100028 58 134 0.0 4.3 0.00 0.00 0.00 79 1015.8
20260505095536 58 183 0.0 5.2 0.00 0.00 0.00 79 1016.2
20260505095508 58 219 0.9 5.2 0.00 0.00 0.00 78 1015.7
20260505095030 59 284 0.9 5.2 0.00 0.00 0.00 79 1016.2
20260505095008 59 266 0.9 5.2 0.00 0.00 0.00 78 1015.7
20260505094532 59 223 0.9 7.8 0.00 0.00 0.00 79 1016.1
20260505094526 59 248 0.9 7.8 0.00 0.00 0.00 78 1015.7
20260505094029 59 211 1.7 7.8 0.00 0.00 0.00 78 1016.1
20260505094010 59 254 1.7 7.8 0.00 0.00 0.00 78 1015.6
20260505093528 59 315 1.7 7.0 0.00 0.00 0.00 78 1016.0
20260505093506 59 268 1.7 6.1 0.00 0.00 0.00 78 1015.6
20260505093035 59 253 1.7 7.0 0.00 0.00 0.00 78 1015.5
20260505093028 59 275 1.7 7.0 0.00 0.00 0.00 78 1016.1
20260505092528 59 104 0.9 7.0 0.00 0.00 0.00 78 1016.1
20260505092506 59 258 0.9 7.0 0.00 0.00 0.00 77 1015.6
20260505092028 59 172 0.0 5.2 0.00 0.00 0.00 78 1016.1
20260505092009 59 207 0.9 5.2 0.00 0.00 0.00 77 1015.6
20260505091527 59 233 0.9 5.2 0.00 0.00 0.00 77 1015.9
20260505091025 59 268 1.7 8.7 0.00 0.00 0.00 77 1016.0
20260505091007 59 260 1.7 8.7 0.00 0.00 0.00 77 1015.5
20260505090531 59 228 2.6 8.7 0.00 0.00 0.00 77 1016.0
20260505090507 59 243 2.6 8.7 0.00 0.00 0.00 77 1015.5
20260505090028 59 312 2.6 6.1 0.00 0.00 0.00 77 1015.4
20260505090025 59 278 1.7 6.1 0.00 0.00 0.00 77 1015.8
20260505085525 59 211 1.7 6.1 0.00 0.00 0.00 77 1015.8
20260505085508 59 234 1.7 6.1 0.00 0.00 0.00 77 1015.4
20260505085024 59 241 1.7 5.2 0.00 0.00 0.00 77 1015.8
20260505085009 59 262 1.7 5.2 0.00 0.00 0.00 76 1015.4
20260505084529 60 262 1.7 7.0 0.00 0.00 0.00 76 1015.5
20260505084524 60 210 0.9 7.0 0.00 0.00 0.00 77 1015.8
20260505084022 60 230 1.7 7.0 0.00 0.00 0.00 76 1015.8
20260505084004 60 245 2.6 7.0 0.00 0.00 0.00 76 1015.5
20260505083524 60 143 1.7 7.0 0.00 0.00 0.00 76 1015.8
20260505083510 60 181 1.7 7.0 0.00 0.00 0.00 76 1015.5
20260505083032 60 264 0.9 4.3 0.00 0.00 0.00 76 1015.5
20260505083024 60 255 0.9 4.3 0.00 0.00 0.00 76 1015.9
20260505082521 60 207 0.9 6.1 0.00 0.00 0.00 76 1015.8
20260505082504 60 267 0.9 6.1 0.00 0.00 0.00 75 1015.5
20260505082020 60 76 1.7 6.1 0.00 0.00 0.00 75 1015.7
20260505082008 60 153 1.7 6.1 0.00 0.00 0.00 75 1015.5
20260505081536 60 131 0.9 5.2 0.00 0.00 0.00 75 1015.5
20260505081520 60 258 0.0 5.2 0.00 0.00 0.00 75 1015.8
20260505081019 60 241 0.9 6.1 0.00 0.00 0.00 75 1015.6
20260505081004 60 240 0.9 6.1 0.00 0.00 0.00 74 1015.4
20260505080518 61 260 0.9 6.1 0.00 0.00 0.00 75 1015.6
20260505080509 61 264 1.7 6.1 0.00 0.00 0.00 74 1015.4
20260505080030 61 240 1.7 6.1 0.00 0.00 0.00 74 1015.3
20260505080018 61 240 0.9 6.1 0.00 0.00 0.00 74 1015.6
20260505075518 61 230 1.7 6.1 0.00 0.00 0.00 74 1015.5
20260505075507 61 217 2.6 6.1 0.00 0.00 0.00 74 1015.3
20260505075016 61 263 0.9 5.2 0.00 0.00 0.00 74 1015.6
20260505075014 61 141 0.9 5.2 0.00 0.00 0.00 74 1015.2
20260505074530 61 257 0.9 5.2 0.00 0.00 0.00 74 1015.2
20260505074516 61 167 0.9 5.2 0.00 0.00 0.00 74 1015.6
20260505074016 61 231 0.9 6.1 0.00 0.00 0.00 74 1015.6
20260505074010 61 241 1.7 6.1 0.00 0.00 0.00 73 1015.2
20260505073514 61 224 1.7 7.8 0.00 0.00 0.00 73 1015.5
20260505073510 61 227 2.6 7.8 0.00 0.00 0.00 73 1015.2
20260505073030 61 244 2.6 7.8 0.00 0.00 0.00 73 1015.4
20260505072514 61 256 2.6 8.7 0.00 0.00 0.00 73 1015.3
20260505072512 61 261 3.5 8.7 0.00 0.00 0.00 73 1015.0
20260505072014 61 304 2.6 8.7 0.00 0.00 0.00 73 1015.3
20260505072007 61 180 2.6 8.7 0.00 0.00 0.00 73 1015.0
20260505071527 61 338 3.5 8.7 0.00 0.00 0.00 72 1015.0
20260505071513 61 7 2.6 8.7 0.00 0.00 0.00 73 1015.3
20260505071014 61 283 1.7 7.0 0.00 0.00 0.00 73 1015.3
20260505071007 61 190 1.7 7.0 0.00 0.00 0.00 72 1015.0
20260505070515 62 275 1.7 9.6 0.00 0.00 0.00 72 1015.2
20260505070511 61 167 1.7 9.6 0.00 0.00 0.00 72 1014.9
20260505070036 62 269 2.6 9.6 0.00 0.00 0.00 71 1014.9
20260505070014 62 231 1.7 9.6 0.00 0.00 0.00 72 1015.2
20260505065511 62 254 0.9 6.1 0.00 0.00 0.00 72 1015.2
20260505065009 62 242 1.7 6.1 0.00 0.00 0.00 71 1015.2
20260505065003 62 272 2.6 6.1 0.00 0.00 0.00 71 1015.0
20260505064520 62 324 1.7 5.2 0.00 0.00 0.00 70 1015.0
20260505064515 62 185 0.9 5.2 0.00 0.00 0.00 71 1015.3
20260505064009 62 230 1.7 5.2 0.00 0.00 0.00 71 1015.4
20260505064002 62 176 2.6 5.2 0.00 0.00 0.00 70 1015.0
20260505063508 62 176 0.9 8.7 0.00 0.00 0.00 70 1015.5
20260505063504 62 294 0.9 8.7 0.00 0.00 0.00 70 1015.1
20260505063019 62 198 4.3 8.7 0.00 0.00 0.00 69 1015.1
20260505063007 62 249 3.5 8.7 0.00 0.00 0.00 70 1015.5
20260505062507 62 247 0.9 8.7 0.00 0.00 0.00 70 1015.5
20260505062010 63 266 2.6 8.7 0.00 0.00 0.00 69 1015.5
20260505062008 63 227 3.5 8.7 0.00 0.00 0.00 69 1015.2
20260505061519 63 242 1.7 7.8 0.00 0.00 0.00 69 1015.5
20260505061005 63 259 0.9 7.0 0.00 0.00 0.00 69 1015.5
20260505061003 63 262 0.9 7.0 0.00 0.00 0.00 68 1015.2
20260505060506 63 252 2.6 9.6 0.00 0.00 0.00 68 1015.5
20260505060504 63 174 3.5 9.6 0.00 0.00 0.00 68 1015.1
20260505060021 63 224 2.6 9.6 0.00 0.00 0.00 68 1015.1
20260505060004 63 225 2.6 9.6 0.00 0.00 0.00 68 1015.4
20260505055503 63 259 2.6 11.3 0.00 0.00 0.00 67 1015.1
20260505055005 63 182 3.5 11.3 0.00 0.00 0.00 67 1015.2
20260505055002 63 193 3.5 11.3 0.00 0.00 0.00 68 1015.5
20260505054524 63 247 3.5 10.4 0.00 0.00 0.00 67 1015.2
20260505054502 63 244 2.6 10.4 0.00 0.00 0.00 68 1015.6
20260505054002 63 151 3.5 10.4 0.00 0.00 0.00 67 1015.3
20260505053600 63 221 2.6 7.8 0.00 0.00 0.00 68 1015.6
20260505053505 63 273 3.5 7.8 0.00 0.00 0.00 67 1015.2
20260505053100 64 266 2.6 9.6 0.00 0.00 0.00 68 1015.6
20260505053022 64 219 3.5 9.6 0.00 0.00 0.00 67 1015.2
20260505052559 64 134 4.3 10.4 0.00 0.00 0.00 67 1015.6
20260505052504 64 127 5.2 10.4 0.00 0.00 0.00 67 1015.3
20260505052058 64 256 1.7 10.4 0.00 0.00 0.00 67 1015.6
20260505052009 64 236 2.6 10.4 0.00 0.00 0.00 67 1015.2
20260505051557 64 163 2.6 8.7 0.00 0.00 0.00 67 1015.6
20260505051543 64 248 3.5 8.7 0.00 0.00 0.00 67 1015.4
20260505051057 64 275 3.5 8.7 0.00 0.00 0.00 67 1015.7
20260505051004 64 336 3.5 12.2 0.00 0.00 0.00 67 1015.4
20260505050556 64 59 1.7 12.2 0.00 0.00 0.00 67 1015.7
20260505050509 64 293 2.6 12.2 0.00 0.00 0.00 66 1015.4
20260505041552 64 327 2.6 9.6 0.00 0.00 0.00 67 1015.7
20260505041528 65 177 2.6 9.6 0.00 0.00 0.00 67 1015.4
20260505041051 64 211 2.6 9.6 0.00 0.00 0.00 67 1015.7
20260505041004 64 158 2.6 9.6 0.00 0.00 0.00 67 1015.3
20260505040550 64 240 2.6 9.6 0.00 0.00 0.00 67 1015.6
20260505040507 64 289 2.6 9.6 0.00 0.00 0.00 67 1015.3
20260505040050 64 181 2.6 9.6 0.00 0.00 0.00 67 1015.7
20260505040027 64 271 2.6 9.6 0.00 0.00 0.00 67 1015.3
20260505035549 65 237 1.7 6.1 0.00 0.00 0.00 67 1015.6
20260505035503 65 111 2.6 6.1 0.00 0.00 0.00 67 1015.2
20260505035049 65 215 1.7 10.4 0.00 0.00 0.00 67 1015.6
20260505035007 65 240 2.6 10.4 0.00 0.00 0.00 66 1015.2
20260505034551 65 218 3.5 10.4 0.00 0.00 0.00 66 1015.5
20260505034508 65 164 4.3 10.4 0.00 0.00 0.00 66 1015.3
20260505034049 65 226 2.6 8.7 0.00 0.00 0.00 66 1015.6
20260505034004 65 265 3.5 9.6 0.00 0.00 0.00 66 1015.3
20260505033549 65 195 1.7 9.6 0.00 0.00 0.00 66 1015.5
20260505033508 65 255 2.6 9.6 0.00 0.00 0.00 66 1015.2
20260505033049 65 259 3.5 9.6 0.00 0.00 0.00 66 1015.5
20260505033009 65 260 4.3 9.6 0.00 0.00 0.00 66 1015.1
20260505032548 65 95 3.5 13.9 0.00 0.00 0.00 66 1015.5
20260505032504 65 206 3.5 13.9 0.00 0.00 0.00 66 1015.2
20260505032148 65 256 3.5 13.9 0.00 0.00 0.00 66 1015.6
20260505032010 65 255 3.5 13.9 0.00 0.00 0.00 65 1015.1
20260505031552 65 221 3.5 10.4 0.00 0.00 0.00 66 1015.5
20260505031506 65 205 4.3 10.4 0.00 0.00 0.00 66 1015.1
20260505031048 65 248 1.7 11.3 0.00 0.00 0.00 66 1015.4
20260505031004 65 171 2.6 11.3 0.00 0.00 0.00 66 1015.0
20260505030552 65 281 3.5 12.2 0.00 0.00 0.00 66 1015.5
20260505030508 65 229 3.5 12.2 0.00 0.00 0.00 66 1015.1
20260505030049 65 260 2.6 12.2 0.00 0.00 0.00 66 1015.5
20260505030010 65 285 3.5 12.2 0.00 0.00 0.00 66 1015.1
20260505025549 66 157 2.6 12.2 0.00 0.00 0.00 66 1015.5
20260505025511 66 177 2.6 12.2 0.00 0.00 0.00 66 1015.1
20260505025047 66 242 3.5 12.2 0.00 0.00 0.00 67 1015.5
20260505025008 66 244 3.5 10.4 0.00 0.00 0.00 66 1015.1
20260505024552 66 230 4.3 10.4 0.00 0.00 0.00 67 1015.4
20260505024512 66 226 5.2 10.4 0.00 0.00 0.00 66 1015.0
20260505024046 66 239 5.2 10.4 0.00 0.00 0.00 67 1015.3
20260505024006 66 176 6.1 10.4 0.00 0.00 0.00 67 1015.0
20260505023546 66 228 2.6 10.4 0.00 0.00 0.00 68 1015.2
20260505023508 66 239 3.5 10.4 0.00 0.00 0.00 67 1014.9
20260505023051 66 237 4.3 10.4 0.00 0.00 0.00 68 1015.3
20260505023011 66 214 5.2 10.4 0.00 0.00 0.00 67 1014.9
20260505022546 66 204 4.3 9.6 0.00 0.00 0.00 68 1015.3
20260505022506 66 244 4.3 9.6 0.00 0.00 0.00 68 1014.9
20260505022049 66 155 3.5 10.4 0.00 0.00 0.00 68 1015.4
20260505022012 66 240 3.5 10.4 0.00 0.00 0.00 68 1015.0
20260505021546 66 232 3.5 10.4 0.00 0.00 0.00 68 1015.4
20260505021512 66 254 3.5 10.4 0.00 0.00 0.00 68 1015.1
20260505021045 66 192 3.5 7.0 0.00 0.00 0.00 68 1015.3
20260505021005 66 142 3.5 7.0 0.00 0.00 0.00 68 1015.2
20260505020545 66 252 3.5 7.0 0.00 0.00 0.00 68 1015.5
20260505020511 66 252 3.5 9.6 0.00 0.00 0.00 68 1015.1
20260505020049 66 262 1.7 9.6 0.00 0.00 0.00 68 1015.5
20260505020012 66 281 1.7 9.6 0.00 0.00 0.00 68 1015.1
20260505015545 66 268 4.3 11.3 0.00 0.00 0.00 68 1015.4
20260505015512 66 311 5.2 11.3 0.00 0.00 0.00 68 1015.1
20260505015045 66 162 2.6 11.3 0.00 0.00 0.00 68 1015.3
20260505015012 66 162 2.6 11.3 0.00 0.00 0.00 68 1014.9
20260505014551 66 232 2.6 7.8 0.00 0.00 0.00 68 1015.4
20260505014516 66 231 2.6 7.8 0.00 0.00 0.00 68 1015.1
20260505014044 66 130 2.6 7.0 0.00 0.00 0.00 68 1015.3
20260505014012 66 235 3.5 7.0 0.00 0.00 0.00 67 1014.9
20260505013544 67 145 1.7 7.0 0.00 0.00 0.00 68 1015.3
20260505013508 67 240 2.6 9.6 0.00 0.00 0.00 67 1015.0
20260505013044 67 256 1.7 9.6 0.00 0.00 0.00 67 1015.3
20260505013018 67 188 2.6 9.6 0.00 0.00 0.00 67 1014.8
20260505012545 67 153 2.6 9.6 0.00 0.00 0.00 67 1015.2
20260505012508 67 286 1.7 9.6 0.00 0.00 0.00 67 1014.8
20260505012044 67 195 3.5 9.6 0.00 0.00 0.00 67 1015.1
20260505012009 67 297 3.5 9.6 0.00 0.00 0.00 67 1014.8
20260505011547 67 241 2.6 9.6 0.00 0.00 0.00 67 1015.1
20260505011518 67 65 1.7 7.0 0.00 0.00 0.00 67 1014.6
20260505011043 67 157 0.9 7.8 0.00 0.00 0.00 67 1015.0
20260505011009 67 281 0.9 7.8 0.00 0.00 0.00 66 1014.5
20260505010544 67 57 2.6 8.7 0.00 0.00 0.00 66 1014.9
20260505010512 67 274 3.5 8.7 0.00 0.00 0.00 66 1014.4
20260505010103 67 133 2.6 8.7 0.00 0.00 0.00 66 1014.8
20260505010019 67 181 3.5 8.7 0.00 0.00 0.00 66 1014.3
20260505005547 67 188 1.7 8.7 0.00 0.00 0.00 66 1014.7
20260505005509 67 141 1.7 8.7 0.00 0.00 0.00 65 1014.3
20260505005042 68 222 2.6 8.7 0.00 0.00 0.00 66 1014.7
20260505005004 68 217 2.6 8.7 0.00 0.00 0.00 65 1014.2
20260505004543 68 158 3.5 9.6 0.00 0.00 0.00 66 1014.6
20260505004518 68 187 2.6 9.6 0.00 0.00 0.00 65 1014.2
20260505004042 68 199 1.7 9.6 0.00 0.00 0.00 65 1014.5
20260505004008 68 190 1.7 9.6 0.00 0.00 0.00 65 1014.0
20260505003542 68 162 0.9 7.8 0.00 0.00 0.00 65 1014.5
20260505003502 68 259 1.7 7.8 0.00 0.00 0.00 64 1014.0
20260505003046 68 128 3.5 8.7 0.00 0.00 0.00 64 1014.4
20260505003022 68 286 4.3 8.7 0.00 0.00 0.00 64 1014.0
20260505002545 68 250 1.7 10.4 0.00 0.00 0.00 64 1014.3
20260505002509 68 146 1.7 10.4 0.00 0.00 0.00 63 1013.9
20260505002042 69 102 2.6 13.9 0.00 0.00 0.00 64 1014.3
20260505002004 69 108 3.5 13.9 0.00 0.00 0.00 63 1013.8
20260505001542 69 152 3.5 13.9 0.00 0.00 0.00 63 1014.3
20260505001520 69 297 3.5 13.9 0.00 0.00 0.00 63 1013.9
20260505001038 69 243 1.7 7.8 0.00 0.00 0.00 63 1014.2
20260505001010 69 75 2.6 7.8 0.00 0.00 0.00 62 1013.7
20260505000538 69 166 3.5 8.7 0.00 0.00 0.00 62 1014.1
20260505000504 69 134 3.5 8.7 0.00 0.00 0.00 62 1013.8
20260505000045 70 219 3.5 8.7 0.00 0.00 0.00 62 1014.1
20260505000024 70 127 4.3 9.6 0.00 0.00 0.00 61 1013.7
20260504235538 70 278 2.6 9.6 0.00 0.00 0.00 61 1014.2
20260504235508 70 172 2.6 9.6 0.00 0.00 0.00 61 1013.7
20260504235041 70 162 3.5 9.6 0.00 0.00 0.00 61 1014.1
20260504235005 70 150 3.5 13.0 0.00 0.00 0.00 60 1013.8
20260504234537 70 228 2.6 13.0 0.00 0.00 0.00 60 1014.1
20260504234524 70 250 2.6 13.0 0.00 0.00 0.00 59 1013.6
20260504234037 71 241 4.3 13.0 0.00 0.00 0.00 59 1014.0
20260504234007 71 156 5.2 13.0 0.00 0.00 0.00 59 1013.6
20260504233537 71 141 4.3 10.4 0.00 0.00 0.00 59 1014.0
20260504233504 71 257 4.3 10.4 0.00 0.00 0.00 58 1013.6
20260504233039 71 164 2.6 11.3 0.00 0.00 0.00 58 1013.9
20260504233024 71 129 3.5 11.3 0.00 0.00 0.00 58 1013.4
20260504232537 72 240 2.6 11.3 0.00 0.00 0.00 58 1013.7
20260504232509 72 219 3.5 11.3 0.00 0.00 0.00 57 1013.4
20260504232037 72 157 3.5 10.4 0.00 0.00 0.00 57 1013.7
20260504232006 72 194 3.5 10.4 0.00 0.00 0.00 56 1013.3
20260504231543 73 252 4.3 11.3 0.00 0.00 0.00 57 1013.6
20260504231524 73 273 4.3 12.2 0.00 0.00 0.00 56 1013.2
20260504231037 73 192 3.5 12.2 0.00 0.00 0.00 56 1013.5
20260504231012 73 163 3.5 12.2 0.00 0.00 0.00 55 1013.3
20260504230536 74 279 3.5 12.2 0.00 0.00 0.00 54 1013.4
20260504230507 74 217 3.5 12.2 0.00 0.00 0.00 54 1013.3
20260504230043 74 219 4.3 11.3 0.00 0.00 0.00 53 1013.5
20260504230026 75 149 5.2 13.0 0.00 0.00 0.00 53 1013.3
20260504225538 75 195 5.2 13.9 0.00 0.00 0.00 53 1013.4
20260504225514 75 151 5.2 13.9 0.00 0.00 0.00 51 1013.2
20260504225035 76 219 4.3 13.9 0.00 0.00 0.00 50 1013.4
20260504225007 76 75 5.2 13.9 0.00 0.00 0.00 49 1013.2
20260504224535 77 190 2.6 11.3 0.00 0.00 0.00 42 1013.3
20260504224526 78 148 1.7 7.8 0.00 0.00 0.00 42 1013.1
20260504224035 78 283 3.5 9.6 0.00 0.00 0.00 39 1013.2
20260504224010 78 269 3.5 9.6 0.00 0.00 0.00 39 1013.0
20260504223539 78 217 3.5 9.6 0.00 0.00 0.00 39 1013.1
20260504223508 78 295 4.3 9.6 0.00 0.00 0.00 38 1012.9
20260504223035 78 249 2.6 9.6 0.00 0.00 0.00 39 1013.1
20260504223027 78 278 2.6 10.4 0.00 0.00 0.00 39 1012.8
20260504222535 78 266 2.6 10.4 0.00 0.00 0.00 39 1013.2
20260504222508 78 274 1.7 10.4 0.00 0.00 0.00 40 1012.9
20260504222033 77 233 4.3 13.9 0.00 0.00 0.00 39 1013.1
20260504222011 77 272 5.2 13.9 0.00 0.00 0.00 38 1012.9
20260504221545 77 258 5.2 13.9 0.00 0.00 0.00 40 1013.1
20260504221528 77 250 6.1 13.9 0.00 0.00 0.00 39 1012.9
20260504221032 78 255 5.2 10.4 0.00 0.00 0.00 39 1013.2
20260504221009 78 246 5.2 10.4 0.00 0.00 0.00 38 1012.9
20260504220532 78 195 4.3 12.2 0.00 0.00 0.00 39 1013.2
20260504220509 78 207 4.3 12.2 0.00 0.00 0.00 39 1012.9
20260504220034 78 318 4.3 13.0 0.00 0.00 0.00 39 1013.3
20260504220029 78 218 5.2 14.8 0.00 0.00 0.00 38 1012.9
20260504215532 78 216 5.2 14.8 0.00 0.00 0.00 39 1013.3
20260504215505 78 236 4.3 14.8 0.00 0.00 0.00 38 1013.0
20260504215030 78 270 4.3 13.9 0.00 0.00 0.00 38 1013.4
20260504215008 78 285 4.3 13.9 0.00 0.00 0.00 38 1012.9
20260504214531 78 265 4.3 12.2 0.00 0.00 0.00 39 1013.2
20260504214526 78 184 5.2 12.2 0.00 0.00 0.00 39 1012.9